Location: Amsterdam
(30.7274°N, 84.4357°W)
Time: 03:32:53
(UTC+00:00)

Tiros 1 - Pass Details

Date: 16 February 2026
Orbit: 618 x 649 km, 48.4° (Epoch: 7 March)

Event Time Altitude Azimuth Distance (km) Brightness Sun altitude
Rises 20:58:21 0° 314° (NW) 2,884 10.6 28.0°
Reaches altitude 10° 21:00:42 10° 319° (NW) 1,977 9.8 27.6°
Maximum altitude 21:05:11 58° 38° (NE) 721 7.4 26.8°
Drops below altitude 10° 21:09:39 10° 118° (ESE) 1,977 9.5 26.1°
Sets 21:11:59 0° 122° (ESE) 2,884 10.3 25.6°
